Time,TemperatureF,DewpointF,PressureIn,WindDirection,WindDirectionDegrees,WindSpeedMPH,WindSpeedGustMPH,Humidity,HourlyPrecipIn,Conditions,Clouds,dailyrainin,SolarRadiationWatts/m^2,SoftwareType,DateUTC
2013-04-13 00:01:00,63.2,52.2,29.81,WNW,296,0.0,0.0,67,0.00,,,0.00,0.0,WUHU216DAVISVP2,2013-04-13 07:01:00,
2013-04-13 00:07:00,63.4,52.4,29.81,WNW,296,0.0,0.0,67,0.00,,,0.00,0.0,WUHU216DAVISVP2,2013-04-13 07:07:00,
2013-04-13 00:12:00,63.5,52.5,29.81,WNW,296,0.0,0.0,67,0.00,,,0.00,0.0,WUHU216DAVISVP2,2013-04-13 07:12:00,
2013-04-13 00:17:00,63.4,52.8,29.81,WNW,296,0.0,0.0,68,0.00,,,0.00,0.0,WUHU216DAVISVP2,2013-04-13 07:17:00,
2013-04-13 00:22:00,63.2,53.0,29.81,WNW,296,0.0,0.0,69,0.00,,,0.00,0.0,WUHU216DAVISVP2,2013-04-13 07:22:00,
2013-04-13 00:27:00,62.9,52.3,29.81,WNW,296,0.0,0.0,68,0.00,,,0.00,0.0,WUHU216DAVISVP2,2013-04-13 07:27:00,
2013-04-13 00:32:00,62.4,53.4,29.81,WNW,296,0.0,0.0,72,0.00,,,0.00,0.0,WUHU216DAVISVP2,2013-04-13 07:32:00,
2013-04-13 00:37:00,61.8,53.2,29.81,WNW,296,0.0,0.0,73,0.00,,,0.00,0.0,WUHU216DAVISVP2,2013-04-13 07:37:00,
2013-04-13 00:43:00,61.4,53.2,29.81,WNW,296,0.0,1.0,74,0.00,,,0.00,0.0,WUHU216DAVISVP2,2013-04-13 07:43:00,
2013-04-13 00:48:00,60.8,52.9,29.80,WNW,296,0.0,1.0,75,0.00,,,0.00,0.0,WUHU216DAVISVP2,2013-04-13 07:48:00,
2013-04-13 00:53:00,60.7,52.5,29.80,WNW,296,0.0,1.0,74,0.00,,,0.00,0.0,WUHU216DAVISVP2,2013-04-13 07:53:00,
2013-04-13 00:58:00,60.4,52.9,29.81,WNW,296,0.0,0.0,76,0.00,,,0.00,0.0,WUHU216DAVISVP2,2013-04-13 07:58:00,
2013-04-13 01:03:00,60.2,52.7,29.80,WNW,296,0.0,0.0,76,0.00,,,0.00,0.0,WUHU216DAVISVP2,2013-04-13 08:03:00,
2013-04-13 01:08:00,60.2,52.3,29.81,WNW,296,0.0,0.0,75,0.00,,,0.00,0.0,WUHU216DAVISVP2,2013-04-13 08:08:00,
2013-04-13 01:13:00,60.4,52.2,29.81,WNW,296,0.0,3.0,74,0.00,,,0.00,0.0,WUHU216DAVISVP2,2013-04-13 08:13:00,
2013-04-13 01:18:00,60.5,52.3,29.80,WNW,296,0.0,3.0,74,0.00,,,0.00,0.0,WUHU216DAVISVP2,2013-04-13 08:18:00,
2013-04-13 01:23:00,60.6,52.4,29.80,WNW,296,0.0,3.0,74,0.00,,,0.00,0.0,WUHU216DAVISVP2,2013-04-13 08:23:00,
2013-04-13 01:28:00,60.6,52.0,29.80,WNW,296,0.0,2.0,73,0.00,,,0.00,0.0,WUHU216DAVISVP2,2013-04-13 08:28:00,
2013-04-13 01:33:00,60.6,52.0,29.80,WNW,296,0.0,0.0,73,0.00,,,0.00,0.0,WUHU216DAVISVP2,2013-04-13 08:33:00,
2013-04-13 01:38:00,60.4,51.8,29.80,WNW,296,0.0,1.0,73,0.00,,,0.00,0.0,WUHU216DAVISVP2,2013-04-13 08:38:00,
2013-04-13 01:43:00,60.2,52.3,29.81,WNW,296,0.0,1.0,75,0.00,,,0.00,0.0,WUHU216DAVISVP2,2013-04-13 08:43:00,
2013-04-13 01:48:00,59.6,52.1,29.80,WNW,296,0.0,1.0,76,0.00,,,0.00,0.0,WUHU216DAVISVP2,2013-04-13 08:48:00,
2013-04-13 01:53:00,59.4,51.6,29.80,WNW,296,0.0,1.0,75,0.00,,,0.00,0.0,WUHU216DAVISVP2,2013-04-13 08:53:00,
2013-04-13 01:59:00,59.7,50.8,29.80,WNW,296,0.0,1.0,72,0.00,,,0.00,0.0,WUHU216DAVISVP2,2013-04-13 08:59:00,
2013-04-13 02:04:00,59.6,51.8,29.80,WNW,296,0.0,1.0,75,0.00,,,0.00,0.0,WUHU216DAVISVP2,2013-04-13 09:04:00,
2013-04-13 02:09:00,58.8,51.7,29.80,WNW,296,0.0,1.0,77,0.00,,,0.00,0.0,WUHU216DAVISVP2,2013-04-13 09:09:00,
2013-04-13 02:14:00,58.3,51.2,29.79,WNW,296,0.0,1.0,77,0.00,,,0.00,0.0,WUHU216DAVISVP2,2013-04-13 09:14:00,
2013-04-13 02:19:00,58.2,50.8,29.79,WNW,296,0.0,0.0,76,0.00,,,0.00,0.0,WUHU216DAVISVP2,2013-04-13 09:19:00,
2013-04-13 02:24:00,58.3,50.5,29.79,WNW,296,0.0,0.0,75,0.00,,,0.00,0.0,WUHU216DAVISVP2,2013-04-13 09:24:00,
2013-04-13 02:29:00,58.0,51.2,29.79,WNW,296,0.0,1.0,78,0.00,,,0.00,0.0,WUHU216DAVISVP2,2013-04-13 09:29:00,
2013-04-13 02:34:00,57.4,51.0,29.79,WNW,296,0.0,1.0,79,0.00,,,0.00,0.0,WUHU216DAVISVP2,2013-04-13 09:34:00,
2013-04-13 02:39:00,57.1,51.0,29.79,WNW,296,0.0,1.0,80,0.00,,,0.00,0.0,WUHU216DAVISVP2,2013-04-13 09:39:00,
2013-04-13 02:44:00,56.9,50.8,29.79,WNW,296,0.0,1.0,80,0.00,,,0.00,0.0,WUHU216DAVISVP2,2013-04-13 09:44:00,
2013-04-13 02:49:00,56.8,50.7,29.79,WNW,296,0.0,2.0,80,0.00,,,0.00,0.0,WUHU216DAVISVP2,2013-04-13 09:49:00,
2013-04-13 02:54:00,56.7,50.6,29.79,WNW,296,0.0,2.0,80,0.00,,,0.00,0.0,WUHU216DAVISVP2,2013-04-13 09:54:00,
2013-04-13 03:00:00,56.7,50.6,29.79,WNW,296,0.0,2.0,80,0.00,,,0.00,0.0,WUHU216DAVISVP2,2013-04-13 10:00:00,
2013-04-13 03:05:00,56.8,50.7,29.78,WNW,296,0.0,2.0,80,0.00,,,0.00,0.0,WUHU216DAVISVP2,2013-04-13 10:05:00,
2013-04-13 03:10:00,56.8,50.7,29.78,WNW,296,0.0,1.0,80,0.00,,,0.00,0.0,WUHU216DAVISVP2,2013-04-13 10:10:00,
2013-04-13 03:15:00,56.8,50.7,29.78,WNW,296,0.0,1.0,80,0.00,,,0.00,0.0,WUHU216DAVISVP2,2013-04-13 10:15:00,
2013-04-13 03:20:00,56.7,50.6,29.78,WNW,296,0.0,1.0,80,0.00,,,0.00,0.0,WUHU216DAVISVP2,2013-04-13 10:20:00,
2013-04-13 03:25:00,56.7,50.6,29.78,WNW,296,0.0,0.0,80,0.00,,,0.00,0.0,WUHU216DAVISVP2,2013-04-13 10:25:00,
2013-04-13 03:30:00,56.6,50.5,29.78,WNW,296,0.0,0.0,80,0.00,,,0.00,0.0,WUHU216DAVISVP2,2013-04-13 10:30:00,
2013-04-13 03:35:00,56.6,50.8,29.78,WNW,296,1.0,2.0,81,0.00,,,0.00,0.0,WUHU216DAVISVP2,2013-04-13 10:35:00,
2013-04-13 03:40:00,56.7,50.9,29.78,WNW,296,0.0,3.0,81,0.00,,,0.00,0.0,WUHU216DAVISVP2,2013-04-13 10:40:00,
2013-04-13 03:45:00,56.7,50.6,29.78,WNW,296,0.0,3.0,80,0.00,,,0.00,0.0,WUHU216DAVISVP2,2013-04-13 10:45:00,
2013-04-13 03:50:00,56.6,50.5,29.78,WNW,296,0.0,3.0,80,0.00,,,0.00,0.0,WUHU216DAVISVP2,2013-04-13 10:50:00,
2013-04-13 03:55:00,56.3,50.5,29.78,WNW,296,0.0,3.0,81,0.00,,,0.00,0.0,WUHU216DAVISVP2,2013-04-13 10:55:00,
2013-04-13 04:00:00,55.9,50.8,29.78,WNW,296,0.0,1.0,83,0.00,,,0.00,0.0,WUHU216DAVISVP2,2013-04-13 11:00:00,
2013-04-13 04:05:00,55.3,50.6,29.78,WNW,296,0.0,1.0,84,0.00,,,0.00,0.0,WUHU216DAVISVP2,2013-04-13 11:05:00,
2013-04-13 04:10:00,55.1,50.4,29.78,WNW,296,0.0,0.0,84,0.00,,,0.00,0.0,WUHU216DAVISVP2,2013-04-13 11:10:00,
2013-04-13 04:16:00,54.9,50.2,29.78,WNW,296,0.0,0.0,84,0.00,,,0.00,0.0,WUHU216DAVISVP2,2013-04-13 11:16:00,
2013-04-13 04:21:00,54.8,50.1,29.78,WNW,296,0.0,0.0,84,0.00,,,0.00,0.0,WUHU216DAVISVP2,2013-04-13 11:21:00,
2013-04-13 04:26:00,54.6,50.2,29.78,WNW,296,0.0,0.0,85,0.00,,,0.00,0.0,WUHU216DAVISVP2,2013-04-13 11:26:00,
2013-04-13 04:31:00,54.4,50.0,29.78,WNW,296,0.0,0.0,85,0.00,,,0.00,0.0,WUHU216DAVISVP2,2013-04-13 11:31:00,
2013-04-13 04:37:00,54.1,50.0,29.78,WNW,296,0.0,0.0,86,0.00,,,0.00,0.0,WUHU216DAVISVP2,2013-04-13 11:37:00,
2013-04-13 04:42:00,53.7,49.6,29.78,WNW,296,0.0,0.0,86,0.00,,,0.00,0.0,WUHU216DAVISVP2,2013-04-13 11:42:00,
2013-04-13 04:47:00,53.6,49.5,29.78,WNW,296,0.0,0.0,86,0.00,,,0.00,0.0,WUHU216DAVISVP2,2013-04-13 11:47:00,
2013-04-13 04:52:00,53.5,49.7,29.78,WNW,296,0.0,0.0,87,0.00,,,0.00,0.0,WUHU216DAVISVP2,2013-04-13 11:52:00,
2013-04-13 04:58:00,53.7,49.9,29.78,WNW,296,0.0,0.0,87,0.00,,,0.00,0.0,WUHU216DAVISVP2,2013-04-13 11:58:00,
2013-04-13 05:03:00,53.8,49.7,29.78,WNW,296,0.0,0.0,86,0.00,,,0.00,0.0,WUHU216DAVISVP2,2013-04-13 12:03:00,
2013-04-13 05:08:00,53.8,49.7,29.78,WNW,296,0.0,0.0,86,0.00,,,0.00,0.0,WUHU216DAVISVP2,2013-04-13 12:08:00,
2013-04-13 05:13:00,53.7,49.6,29.78,WNW,296,0.0,0.0,86,0.00,,,0.00,0.0,WUHU216DAVISVP2,2013-04-13 12:13:00,
2013-04-13 05:18:00,53.7,49.9,29.78,WNW,296,0.0,0.0,87,0.00,,,0.00,0.0,WUHU216DAVISVP2,2013-04-13 12:18:00,
2013-04-13 05:23:00,53.5,49.7,29.78,WNW,296,0.0,0.0,87,0.00,,,0.00,0.0,WUHU216DAVISVP2,2013-04-13 12:23:00,
2013-04-13 05:28:00,53.4,49.6,29.78,WNW,296,0.0,0.0,87,0.00,,,0.00,0.0,WUHU216DAVISVP2,2013-04-13 12:28:00,
2013-04-13 05:33:00,53.5,49.7,29.78,WNW,296,0.0,0.0,87,0.00,,,0.00,0.0,WUHU216DAVISVP2,2013-04-13 12:33:00,
2013-04-13 05:38:00,53.7,49.6,29.78,WNW,296,0.0,0.0,86,0.00,,,0.00,0.0,WUHU216DAVISVP2,2013-04-13 12:38:00,
2013-04-13 05:43:00,53.9,49.5,29.78,WNW,296,0.0,0.0,85,0.00,,,0.00,0.0,WUHU216DAVISVP2,2013-04-13 12:43:00,
2013-04-13 05:48:00,54.1,49.4,29.78,WNW,296,0.0,0.0,84,0.00,,,0.00,0.0,WUHU216DAVISVP2,2013-04-13 12:48:00,
2013-04-13 05:54:00,54.0,49.3,29.78,WNW,296,0.0,0.0,84,0.00,,,0.00,0.0,WUHU216DAVISVP2,2013-04-13 12:54:00,
2013-04-13 05:59:00,53.9,49.2,29.78,WNW,296,0.0,0.0,84,0.00,,,0.00,0.0,WUHU216DAVISVP2,2013-04-13 12:59:00,
2013-04-13 06:04:00,53.9,49.2,29.78,WNW,296,0.0,0.0,84,0.00,,,0.00,0.0,WUHU216DAVISVP2,2013-04-13 13:04:00,
2013-04-13 06:09:00,54.0,49.3,29.78,WNW,296,0.0,0.0,84,0.00,,,0.00,0.0,WUHU216DAVISVP2,2013-04-13 13:09:00,
2013-04-13 06:14:00,54.1,49.4,29.78,WNW,296,0.0,1.0,84,0.00,,,0.00,0.0,WUHU216DAVISVP2,2013-04-13 13:14:00,
2013-04-13 06:19:00,54.2,49.2,29.78,WNW,296,0.0,1.0,83,0.00,,,0.00,0.0,WUHU216DAVISVP2,2013-04-13 13:19:00,
2013-04-13 06:24:00,54.4,49.4,29.78,WNW,296,0.0,2.0,83,0.00,,,0.00,0.0,WUHU216DAVISVP2,2013-04-13 13:24:00,
2013-04-13 06:29:00,54.6,49.2,29.78,WNW,296,0.0,2.0,82,0.00,,,0.00,0.0,WUHU216DAVISVP2,2013-04-13 13:29:00,
2013-04-13 06:34:00,54.7,49.3,29.78,WNW,296,0.0,2.0,82,0.00,,,0.00,7.0,WUHU216DAVISVP2,2013-04-13 13:34:00,
2013-04-13 06:40:00,54.8,49.1,29.78,WNW,296,1.0,3.0,81,0.00,,,0.00,11.0,WUHU216DAVISVP2,2013-04-13 13:40:00,
2013-04-13 06:45:00,54.9,49.2,29.78,WNW,296,0.0,4.0,81,0.00,,,0.00,14.0,WUHU216DAVISVP2,2013-04-13 13:45:00,
2013-04-13 06:50:00,54.9,49.2,29.78,WNW,296,0.0,4.0,81,0.00,,,0.00,19.0,WUHU216DAVISVP2,2013-04-13 13:50:00,
2013-04-13 06:55:00,54.8,49.1,29.78,WNW,296,2.0,4.0,81,0.00,,,0.00,25.0,WUHU216DAVISVP2,2013-04-13 13:55:00,
2013-04-13 07:00:00,54.9,49.2,29.78,SSE,150,1.0,5.0,81,0.00,,,0.00,35.0,WUHU216DAVISVP2,2013-04-13 14:00:00,
2013-04-13 07:05:00,54.9,49.2,29.78,SSE,150,1.0,5.0,81,0.00,,,0.00,40.0,WUHU216DAVISVP2,2013-04-13 14:05:00,
2013-04-13 07:10:00,55.0,49.3,29.78,SSE,150,0.0,5.0,81,0.00,,,0.00,72.0,WUHU216DAVISVP2,2013-04-13 14:10:00,
2013-04-13 07:15:00,55.3,49.6,29.79,SSE,150,0.0,5.0,81,0.00,,,0.00,97.0,WUHU216DAVISVP2,2013-04-13 14:15:00,
2013-04-13 07:20:00,55.5,49.5,29.79,SSE,150,0.0,4.0,80,0.00,,,0.00,81.0,WUHU216DAVISVP2,2013-04-13 14:20:00,
2013-04-13 07:25:00,55.8,49.8,29.79,SSE,150,0.0,4.0,80,0.00,,,0.00,97.0,WUHU216DAVISVP2,2013-04-13 14:25:00,
2013-04-13 07:30:00,56.0,49.9,29.79,SSE,150,3.0,3.0,80,0.00,,,0.00,109.0,WUHU216DAVISVP2,2013-04-13 14:30:00,
2013-04-13 07:35:00,56.1,50.0,29.79,SSE,150,1.0,3.0,80,0.00,,,0.00,113.0,WUHU216DAVISVP2,2013-04-13 14:35:00,
2013-04-13 07:40:00,56.5,50.1,29.80,SSE,150,0.0,3.0,79,0.00,,,0.00,130.0,WUHU216DAVISVP2,2013-04-13 14:40:00,
2013-04-13 07:45:00,56.9,50.2,29.80,SSE,150,0.0,3.0,78,0.00,,,0.00,148.0,WUHU216DAVISVP2,2013-04-13 14:45:00,
2013-04-13 07:50:00,57.2,50.8,29.81,SSE,150,0.0,3.0,79,0.00,,,0.00,186.0,WUHU216DAVISVP2,2013-04-13 14:50:00,
2013-04-13 07:55:00,57.8,51.1,29.81,SSE,150,0.0,1.0,78,0.00,,,0.00,199.0,WUHU216DAVISVP2,2013-04-13 14:55:00,
2013-04-13 08:00:00,58.1,51.0,29.81,SSE,150,0.0,1.0,77,0.00,,,0.00,258.0,WUHU216DAVISVP2,2013-04-13 15:00:00,
2013-04-13 08:05:00,58.6,51.1,29.81,SSE,150,1.0,2.0,76,0.00,,,0.00,214.0,WUHU216DAVISVP2,2013-04-13 15:05:00,
2013-04-13 08:10:00,58.8,51.0,29.81,SSE,150,0.0,2.0,75,0.00,,,0.00,225.0,WUHU216DAVISVP2,2013-04-13 15:10:00,
2013-04-13 08:15:00,59.1,50.9,29.82,SSE,150,0.0,2.0,74,0.00,,,0.00,246.0,WUHU216DAVISVP2,2013-04-13 15:15:00,
2013-04-13 08:20:00,59.4,51.2,29.82,SSE,150,0.0,2.0,74,0.00,,,0.00,308.0,WUHU216DAVISVP2,2013-04-13 15:20:00,
2013-04-13 08:25:00,59.9,51.7,29.82,SSE,150,0.0,2.0,74,0.00,,,0.00,195.0,WUHU216DAVISVP2,2013-04-13 15:25:00,
2013-04-13 08:30:00,60.1,51.9,29.82,SSE,150,0.0,3.0,74,0.00,,,0.00,220.0,WUHU216DAVISVP2,2013-04-13 15:30:00,
2013-04-13 08:35:00,60.6,51.7,29.82,SSE,150,0.0,3.0,72,0.00,,,0.00,343.0,WUHU216DAVISVP2,2013-04-13 15:35:00,
2013-04-13 08:41:00,61.2,51.9,29.82,SE,146,2.0,3.0,71,0.00,,,0.00,325.0,WUHU216DAVISVP2,2013-04-13 15:41:00,
2013-04-13 08:47:00,61.4,51.7,29.83,East,95,3.0,6.0,70,0.00,,,0.00,336.0,WUHU216DAVISVP2,2013-04-13 15:47:00,
2013-04-13 08:52:00,61.7,51.6,29.82,East,96,3.0,6.0,69,0.00,,,0.00,431.0,WUHU216DAVISVP2,2013-04-13 15:52:00,
2013-04-13 08:57:00,62.4,52.2,29.82,East,96,1.0,6.0,69,0.00,,,0.00,464.0,WUHU216DAVISVP2,2013-04-13 15:57:00,
2013-04-13 09:02:00,63.4,52.4,29.82,East,95,5.0,6.0,67,0.00,,,0.00,443.0,WUHU216DAVISVP2,2013-04-13 16:02:00,
2013-04-13 09:07:00,63.9,52.3,29.82,East,98,6.0,8.0,66,0.00,,,0.00,452.0,WUHU216DAVISVP2,2013-04-13 16:07:00,
2013-04-13 09:12:00,64.3,52.3,29.82,East,98,5.0,8.0,65,0.00,,,0.00,434.0,WUHU216DAVISVP2,2013-04-13 16:12:00,
2013-04-13 09:17:00,64.7,51.8,29.82,SSE,165,2.0,8.0,63,0.00,,,0.00,443.0,WUHU216DAVISVP2,2013-04-13 16:17:00,
2013-04-13 09:22:00,65.2,52.3,29.82,SSE,162,3.0,7.0,63,0.00,,,0.00,522.0,WUHU216DAVISVP2,2013-04-13 16:22:00,
2013-04-13 09:28:00,65.8,52.4,29.82,SE,126,2.0,7.0,62,0.00,,,0.00,538.0,WUHU216DAVISVP2,2013-04-13 16:28:00,
2013-04-13 09:33:00,66.8,52.6,29.82,South,178,5.0,7.0,60,0.00,,,0.00,555.0,WUHU216DAVISVP2,2013-04-13 16:33:00,
2013-04-13 09:38:00,66.7,52.5,29.81,SSE,167,2.0,7.0,60,0.00,,,0.00,571.0,WUHU216DAVISVP2,2013-04-13 16:38:00,
2013-04-13 09:43:00,67.7,54.4,29.82,SSE,159,1.0,7.0,62,0.00,,,0.00,594.0,WUHU216DAVISVP2,2013-04-13 16:43:00,
2013-04-13 09:48:00,68.5,53.3,29.82,SSE,163,3.0,7.0,58,0.00,,,0.00,568.0,WUHU216DAVISVP2,2013-04-13 16:48:00,
2013-04-13 09:53:00,68.8,53.1,29.82,SSE,165,3.0,7.0,57,0.00,,,0.00,584.0,WUHU216DAVISVP2,2013-04-13 16:53:00,
2013-04-13 09:58:00,68.5,52.8,29.81,South,173,1.0,8.0,57,0.00,,,0.00,589.0,WUHU216DAVISVP2,2013-04-13 16:58:00,
2013-04-13 10:03:00,68.4,52.7,29.81,SSE,165,3.0,8.0,57,0.00,,,0.00,578.0,WUHU216DAVISVP2,2013-04-13 17:03:00,
2013-04-13 10:08:00,68.6,52.9,29.81,South,171,0.0,8.0,57,0.00,,,0.00,515.0,WUHU216DAVISVP2,2013-04-13 17:08:00,
2013-04-13 10:13:00,69.2,52.5,29.81,South,185,2.0,7.0,55,0.00,,,0.00,638.0,WUHU216DAVISVP2,2013-04-13 17:13:00,
2013-04-13 10:18:00,69.2,52.5,29.81,South,186,0.0,7.0,55,0.00,,,0.00,675.0,WUHU216DAVISVP2,2013-04-13 17:18:00,
2013-04-13 10:23:00,69.6,52.8,29.81,South,173,5.0,7.0,55,0.00,,,0.00,657.0,WUHU216DAVISVP2,2013-04-13 17:23:00,
2013-04-13 10:29:00,70.3,52.9,29.81,SSE,162,4.0,7.0,54,0.00,,,0.00,691.0,WUHU216DAVISVP2,2013-04-13 17:29:00,
2013-04-13 10:34:00,70.2,52.8,29.81,South,180,0.0,7.0,54,0.00,,,0.00,707.0,WUHU216DAVISVP2,2013-04-13 17:34:00,
2013-04-13 10:39:00,71.4,53.4,29.81,South,169,1.0,7.0,53,0.00,,,0.00,719.0,WUHU216DAVISVP2,2013-04-13 17:39:00,
2013-04-13 10:44:00,71.8,52.7,29.81,South,175,2.0,7.0,51,0.00,,,0.00,733.0,WUHU216DAVISVP2,2013-04-13 17:44:00,
2013-04-13 10:49:00,71.9,53.3,29.80,South,174,2.0,7.0,52,0.00,,,0.00,724.0,WUHU216DAVISVP2,2013-04-13 17:49:00,
2013-04-13 10:54:00,72.2,53.6,29.81,SSE,166,1.0,8.0,52,0.00,,,0.00,761.0,WUHU216DAVISVP2,2013-04-13 17:54:00,
2013-04-13 10:59:00,72.7,53.0,29.81,SW,215,2.0,8.0,50,0.00,,,0.00,758.0,WUHU216DAVISVP2,2013-04-13 17:59:00,
2013-04-13 11:04:00,72.5,52.2,29.80,South,178,3.0,9.0,49,0.00,,,0.00,789.0,WUHU216DAVISVP2,2013-04-13 18:04:00,
2013-04-13 11:09:00,73.0,53.3,29.80,SSE,155,3.0,9.0,50,0.00,,,0.00,809.0,WUHU216DAVISVP2,2013-04-13 18:09:00,
2013-04-13 11:14:00,73.7,52.8,29.80,SSW,196,3.0,9.0,48,0.00,,,0.00,789.0,WUHU216DAVISVP2,2013-04-13 18:14:00,
2013-04-13 11:20:00,73.5,53.2,29.80,SSW,213,4.0,9.0,49,0.00,,,0.00,800.0,WUHU216DAVISVP2,2013-04-13 18:20:00,
2013-04-13 11:25:00,74.2,53.3,29.80,SSW,201,3.0,7.0,48,0.00,,,0.00,780.0,WUHU216DAVISVP2,2013-04-13 18:25:00,
2013-04-13 11:27:00,74.2,53.9,29.80,SSW,197,4.0,7.0,49,0.00,,,0.00,780.0,WUHU216DAVISVP2,2013-04-13 18:27:00,
2013-04-13 11:32:00,74.1,53.2,29.81,SSW,200,2.0,7.0,48,0.00,,,0.00,807.0,WUHU216DAVISVP2,2013-04-13 18:32:00,
2013-04-13 11:37:00,74.8,53.2,29.81,SSW,196,1.0,7.0,47,0.00,,,0.00,775.0,WUHU216DAVISVP2,2013-04-13 18:37:00,
2013-04-13 11:42:00,75.0,52.8,29.81,WSW,246,3.0,7.0,46,0.00,,,0.00,780.0,WUHU216DAVISVP2,2013-04-13 18:42:00,
2013-04-13 11:47:00,74.9,53.3,29.81,SW,222,1.0,7.0,47,0.00,,,0.00,817.0,WUHU216DAVISVP2,2013-04-13 18:47:00,
2013-04-13 11:52:00,75.0,53.4,29.81,NW,306,3.0,7.0,47,0.00,,,0.00,798.0,WUHU216DAVISVP2,2013-04-13 18:52:00,
2013-04-13 11:57:00,75.5,53.3,29.80,NW,313,0.0,7.0,46,0.00,,,0.00,849.0,WUHU216DAVISVP2,2013-04-13 18:57:00,
2013-04-13 12:02:00,76.0,54.3,29.80,SSE,159,3.0,7.0,47,0.00,,,0.00,861.0,WUHU216DAVISVP2,2013-04-13 19:02:00,
2013-04-13 12:07:00,76.2,54.5,29.79,SSW,205,1.0,5.0,47,0.00,,,0.00,870.0,WUHU216DAVISVP2,2013-04-13 19:07:00,
2013-04-13 12:12:00,76.5,55.4,29.79,SSW,212,5.0,7.0,48,0.00,,,0.00,821.0,WUHU216DAVISVP2,2013-04-13 19:12:00,
2013-04-13 12:17:00,76.7,55.0,29.79,SSW,203,0.0,7.0,47,0.00,,,0.00,851.0,WUHU216DAVISVP2,2013-04-13 19:17:00,
2013-04-13 12:22:00,76.7,54.4,29.79,West,268,5.0,8.0,46,0.00,,,0.00,886.0,WUHU216DAVISVP2,2013-04-13 19:22:00,
2013-04-13 12:27:00,76.9,54.5,29.79,NW,304,0.0,8.0,46,0.00,,,0.00,838.0,WUHU216DAVISVP2,2013-04-13 19:27:00,
2013-04-13 12:32:00,77.6,55.2,29.78,WSW,246,8.0,8.0,46,0.00,,,0.00,900.0,WUHU216DAVISVP2,2013-04-13 19:32:00,
2013-04-13 12:37:00,77.5,54.5,29.78,West,261,3.0,8.0,45,0.00,,,0.00,795.0,WUHU216DAVISVP2,2013-04-13 19:37:00,
2013-04-13 12:42:00,77.2,53.6,29.78,WNW,286,0.0,8.0,44,0.00,,,0.00,819.0,WUHU216DAVISVP2,2013-04-13 19:42:00,
2013-04-13 12:47:00,78.0,54.9,29.78,WSW,250,4.0,10.0,45,0.00,,,0.00,835.0,WUHU216DAVISVP2,2013-04-13 19:47:00,
2013-04-13 12:52:00,78.1,54.4,29.77,WSW,248,3.0,10.0,44,0.00,,,0.00,826.0,WUHU216DAVISVP2,2013-04-13 19:52:00,
2013-04-13 12:57:00,78.0,54.3,29.77,WSW,252,4.0,10.0,44,0.00,,,0.00,749.0,WUHU216DAVISVP2,2013-04-13 19:57:00,
2013-04-13 13:02:00,78.6,54.2,29.77,WNW,292,5.0,10.0,43,0.00,,,0.00,898.0,WUHU216DAVISVP2,2013-04-13 20:02:00,
2013-04-13 13:07:00,79.3,54.2,29.77,WNW,291,3.0,9.0,42,0.00,,,0.00,851.0,WUHU216DAVISVP2,2013-04-13 20:07:00,
2013-04-13 13:13:00,79.6,52.4,29.76,WSW,256,5.0,9.0,39,0.00,,,0.00,814.0,WUHU216DAVISVP2,2013-04-13 20:13:00,
2013-04-13 13:18:00,79.1,51.9,29.76,NNW,327,0.0,9.0,39,0.00,,,0.00,726.0,WUHU216DAVISVP2,2013-04-13 20:18:00,
2013-04-13 13:23:00,79.3,52.1,29.76,North,350,3.0,9.0,39,0.00,,,0.00,754.0,WUHU216DAVISVP2,2013-04-13 20:23:00,
2013-04-13 13:28:00,80.3,51.5,29.76,NW,311,1.0,8.0,37,0.00,,,0.00,840.0,WUHU216DAVISVP2,2013-04-13 20:28:00,
2013-04-13 13:33:00,80.4,51.6,29.76,NW,313,6.0,8.0,37,0.00,,,0.00,663.0,WUHU216DAVISVP2,2013-04-13 20:33:00,
2013-04-13 13:38:00,80.2,50.7,29.76,NNW,329,4.0,9.0,36,0.00,,,0.00,881.0,WUHU216DAVISVP2,2013-04-13 20:38:00,
2013-04-13 13:43:00,80.6,47.9,29.75,NW,307,0.0,9.0,32,0.00,,,0.00,846.0,WUHU216DAVISVP2,2013-04-13 20:43:00,
2013-04-13 13:48:00,80.8,50.5,29.75,North,5,4.0,9.0,35,0.00,,,0.00,856.0,WUHU216DAVISVP2,2013-04-13 20:48:00,
2013-04-13 13:53:00,81.7,48.8,29.75,NNE,13,2.0,9.0,32,0.00,,,0.00,738.0,WUHU216DAVISVP2,2013-04-13 20:53:00,
2013-04-13 13:58:00,81.4,50.2,29.75,NW,323,4.0,8.0,34,0.00,,,0.00,682.0,WUHU216DAVISVP2,2013-04-13 20:58:00,
2013-04-13 14:03:00,81.5,50.3,29.75,West,276,5.0,8.0,34,0.00,,,0.00,805.0,WUHU216DAVISVP2,2013-04-13 21:03:00,
2013-04-13 14:08:00,81.6,50.4,29.74,NNW,340,2.0,10.0,34,0.00,,,0.00,814.0,WUHU216DAVISVP2,2013-04-13 21:08:00,
2013-04-13 14:13:00,81.9,50.6,29.74,WNW,286,7.0,10.0,34,0.00,,,0.00,802.0,WUHU216DAVISVP2,2013-04-13 21:13:00,
2013-04-13 14:18:00,81.8,49.7,29.74,WSW,246,5.0,10.0,33,0.00,,,0.00,789.0,WUHU216DAVISVP2,2013-04-13 21:18:00,
2013-04-13 14:23:00,81.5,49.5,29.74,West,276,3.0,10.0,33,0.00,,,0.00,640.0,WUHU216DAVISVP2,2013-04-13 21:23:00,
2013-04-13 14:28:00,81.7,49.0,29.74,NW,304,6.0,10.0,32,0.00,,,0.00,788.0,WUHU216DAVISVP2,2013-04-13 21:28:00,
2013-04-13 14:33:00,82.1,48.5,29.74,WNW,294,5.0,10.0,31,0.00,,,0.00,758.0,WUHU216DAVISVP2,2013-04-13 21:33:00,
2013-04-13 14:38:00,82.2,49.4,29.74,West,268,2.0,10.0,32,0.00,,,0.00,759.0,WUHU216DAVISVP2,2013-04-13 21:38:00,
2013-04-13 14:43:00,82.3,50.3,29.74,NNW,336,5.0,10.0,33,0.00,,,0.00,793.0,WUHU216DAVISVP2,2013-04-13 21:43:00,
2013-04-13 14:48:00,82.5,50.5,29.74,NW,315,4.0,9.0,33,0.00,,,0.00,756.0,WUHU216DAVISVP2,2013-04-13 21:48:00,
2013-04-13 14:52:00,82.8,49.8,29.73,West,263,11.0,11.0,32,0.00,,,0.00,810.0,WUHU216DAVISVP2,2013-04-13 21:52:00,
2013-04-13 14:57:00,82.1,50.0,29.73,WNW,295,8.0,12.0,33,0.00,,,0.00,744.0,WUHU216DAVISVP2,2013-04-13 21:57:00,
2013-04-13 15:02:00,82.1,49.2,29.73,NE,34,6.0,12.0,32,0.00,,,0.00,654.0,WUHU216DAVISVP2,2013-04-13 22:02:00,
2013-04-13 15:08:00,82.3,48.5,29.72,WNW,296,3.0,12.0,31,0.00,,,0.00,717.0,WUHU216DAVISVP2,2013-04-13 22:08:00,
2013-04-13 15:13:00,82.5,49.5,29.72,WNW,286,5.0,12.0,32,0.00,,,0.00,735.0,WUHU216DAVISVP2,2013-04-13 22:13:00,
2013-04-13 15:18:00,83.1,50.0,29.72,NW,321,9.0,12.0,32,0.00,,,0.00,775.0,WUHU216DAVISVP2,2013-04-13 22:18:00,
2013-04-13 15:23:00,84.0,49.1,29.72,NW,306,6.0,9.0,30,0.00,,,0.00,740.0,WUHU216DAVISVP2,2013-04-13 22:23:00,
2013-04-13 15:28:00,83.4,49.6,29.72,NNE,19,3.0,9.0,31,0.00,,,0.00,766.0,WUHU216DAVISVP2,2013-04-13 22:28:00,
2013-04-13 15:33:00,83.6,48.9,29.72,NW,324,3.0,9.0,30,0.00,,,0.00,729.0,WUHU216DAVISVP2,2013-04-13 22:33:00,
2013-04-13 15:38:00,83.9,48.2,29.72,WNW,291,7.0,10.0,29,0.00,,,0.00,621.0,WUHU216DAVISVP2,2013-04-13 22:38:00,
2013-04-13 15:43:00,82.9,48.3,29.72,NW,309,8.0,11.0,30,0.00,,,0.00,621.0,WUHU216DAVISVP2,2013-04-13 22:43:00,
2013-04-13 15:48:00,83.0,48.2,29.72,NNW,330,8.0,11.0,30,0.00,,,0.00,585.0,WUHU216DAVISVP2,2013-04-13 22:48:00,
2013-04-13 15:53:00,83.4,47.7,29.71,North,350,7.0,11.0,29,0.00,,,0.00,564.0,WUHU216DAVISVP2,2013-04-13 22:53:00,
2013-04-13 15:58:00,83.5,47.8,29.71,WNW,302,6.0,11.0,29,0.00,,,0.00,575.0,WUHU216DAVISVP2,2013-04-13 22:58:00,
2013-04-13 16:03:00,83.6,47.9,29.71,NW,309,4.0,11.0,29,0.00,,,0.00,643.0,WUHU216DAVISVP2,2013-04-13 23:03:00,
2013-04-13 16:08:00,83.6,47.9,29.71,NW,310,3.0,11.0,29,0.00,,,0.00,592.0,WUHU216DAVISVP2,2013-04-13 23:08:00,
2013-04-13 16:13:00,84.0,47.3,29.70,West,269,8.0,11.0,28,0.00,,,0.00,656.0,WUHU216DAVISVP2,2013-04-13 23:13:00,
2013-04-13 16:18:00,84.0,47.3,29.70,WNW,287,2.0,10.0,28,0.00,,,0.00,643.0,WUHU216DAVISVP2,2013-04-13 23:18:00,
2013-04-13 16:23:00,83.9,46.2,29.70,WNW,287,4.0,10.0,27,0.00,,,0.00,585.0,WUHU216DAVISVP2,2013-04-13 23:23:00,
2013-04-13 16:28:00,84.1,46.4,29.70,NW,318,4.0,10.0,27,0.00,,,0.00,508.0,WUHU216DAVISVP2,2013-04-13 23:28:00,
2013-04-13 16:33:00,84.0,46.3,29.70,NNE,12,1.0,9.0,27,0.00,,,0.00,306.0,WUHU216DAVISVP2,2013-04-13 23:33:00,
2013-04-13 16:38:00,83.6,46.0,29.69,West,273,3.0,10.0,27,0.00,,,0.00,316.0,WUHU216DAVISVP2,2013-04-13 23:38:00,
2013-04-13 16:43:00,83.0,45.5,29.69,West,281,4.0,10.0,27,0.00,,,0.00,385.0,WUHU216DAVISVP2,2013-04-13 23:43:00,
2013-04-13 16:48:00,83.0,44.5,29.69,NNW,330,4.0,10.0,26,0.00,,,0.00,406.0,WUHU216DAVISVP2,2013-04-13 23:48:00,
2013-04-13 16:53:00,83.3,44.7,29.69,NW,315,3.0,10.0,26,0.00,,,0.00,464.0,WUHU216DAVISVP2,2013-04-13 23:53:00,
2013-04-13 16:58:00,83.5,43.9,29.68,WNW,284,5.0,10.0,25,0.00,,,0.00,390.0,WUHU216DAVISVP2,2013-04-13 23:58:00,
2013-04-13 17:03:00,83.4,41.7,29.68,WNW,300,4.0,10.0,23,0.00,,,0.00,332.0,WUHU216DAVISVP2,2013-04-14 00:03:00,
2013-04-13 17:08:00,82.8,42.2,29.68,NW,319,4.0,10.0,24,0.00,,,0.00,408.0,WUHU216DAVISVP2,2013-04-14 00:08:00,
2013-04-13 17:13:00,83.0,42.4,29.68,NW,313,3.0,9.0,24,0.00,,,0.00,341.0,WUHU216DAVISVP2,2013-04-14 00:13:00,
2013-04-13 17:18:00,83.4,41.7,29.68,WNW,302,5.0,9.0,23,0.00,,,0.00,448.0,WUHU216DAVISVP2,2013-04-14 00:18:00,
2013-04-13 17:23:00,83.7,41.9,29.68,NNW,328,6.0,10.0,23,0.00,,,0.00,415.0,WUHU216DAVISVP2,2013-04-14 00:23:00,
2013-04-13 17:28:00,83.8,40.9,29.68,NNW,333,3.0,10.0,22,0.00,,,0.00,302.0,WUHU216DAVISVP2,2013-04-14 00:28:00,
2013-04-13 17:33:00,83.6,40.7,29.68,WNW,282,4.0,10.0,22,0.00,,,0.00,332.0,WUHU216DAVISVP2,2013-04-14 00:33:00,
2013-04-13 17:38:00,83.4,39.4,29.68,WNW,300,6.0,10.0,21,0.00,,,0.00,281.0,WUHU216DAVISVP2,2013-04-14 00:38:00,
2013-04-13 17:43:00,83.5,40.6,29.68,NW,315,6.0,10.0,22,0.00,,,0.00,308.0,WUHU216DAVISVP2,2013-04-14 00:43:00,
2013-04-13 17:48:00,83.5,41.8,29.68,WNW,290,6.0,11.0,23,0.00,,,0.00,315.0,WUHU216DAVISVP2,2013-04-14 00:48:00,
2013-04-13 17:53:00,83.0,42.5,29.68,West,273,7.0,11.0,24,0.00,,,0.00,308.0,WUHU216DAVISVP2,2013-04-14 00:53:00,
2013-04-13 17:58:00,83.1,41.5,29.68,NW,323,5.0,11.0,23,0.00,,,0.00,294.0,WUHU216DAVISVP2,2013-04-14 00:58:00,
2013-04-13 18:03:00,83.2,45.7,29.68,WNW,298,7.0,11.0,27,0.00,,,0.00,278.0,WUHU216DAVISVP2,2013-04-14 01:03:00,
2013-04-13 18:08:00,82.7,48.1,29.68,WNW,283,10.0,11.0,30,0.00,,,0.00,257.0,WUHU216DAVISVP2,2013-04-14 01:08:00,
2013-04-13 18:13:00,82.1,47.5,29.68,WNW,286,7.0,12.0,30,0.00,,,0.00,229.0,WUHU216DAVISVP2,2013-04-14 01:13:00,
2013-04-13 18:18:00,81.8,48.1,29.68,West,277,5.0,12.0,31,0.00,,,0.00,195.0,WUHU216DAVISVP2,2013-04-14 01:18:00,
2013-04-13 18:23:00,81.4,47.7,29.68,WNW,285,5.0,13.0,31,0.00,,,0.00,181.0,WUHU216DAVISVP2,2013-04-14 01:23:00,
2013-04-13 18:28:00,81.1,48.3,29.68,West,265,2.0,13.0,32,0.00,,,0.00,146.0,WUHU216DAVISVP2,2013-04-14 01:28:00,
2013-04-13 18:33:00,80.7,48.0,29.68,WNW,294,6.0,13.0,32,0.00,,,0.00,132.0,WUHU216DAVISVP2,2013-04-14 01:33:00,
2013-04-13 18:38:00,80.3,48.4,29.68,WNW,293,5.0,13.0,33,0.00,,,0.00,120.0,WUHU216DAVISVP2,2013-04-14 01:38:00,
2013-04-13 18:43:00,80.2,48.3,29.69,West,281,2.0,12.0,33,0.00,,,0.00,95.0,WUHU216DAVISVP2,2013-04-14 01:43:00,
2013-04-13 18:48:00,80.1,48.4,29.69,WSW,254,7.0,12.0,33,0.00,,,0.00,81.0,WUHU216DAVISVP2,2013-04-14 01:48:00,
2013-04-13 18:53:00,79.8,48.1,29.69,WNW,284,4.0,10.0,33,0.00,,,0.00,70.0,WUHU216DAVISVP2,2013-04-14 01:53:00,
2013-04-13 18:58:00,79.5,48.7,29.69,WNW,294,2.0,9.0,34,0.00,,,0.00,47.0,WUHU216DAVISVP2,2013-04-14 01:58:00,
2013-04-13 19:03:00,79.3,50.0,29.69,WNW,288,4.0,9.0,36,0.00,,,0.00,40.0,WUHU216DAVISVP2,2013-04-14 02:03:00,
2013-04-13 19:08:00,78.6,50.0,29.69,WNW,290,2.0,9.0,37,0.00,,,0.00,30.0,WUHU216DAVISVP2,2013-04-14 02:08:00,
2013-04-13 19:13:00,78.2,49.7,29.69,WNW,290,6.0,8.0,37,0.00,,,0.00,21.0,WUHU216DAVISVP2,2013-04-14 02:13:00,
2013-04-13 19:18:00,77.8,47.8,29.69,West,265,3.0,8.0,35,0.00,,,0.00,14.0,WUHU216DAVISVP2,2013-04-14 02:18:00,
2013-04-13 19:23:00,77.3,46.6,29.69,West,272,4.0,8.0,34,0.00,,,0.00,9.0,WUHU216DAVISVP2,2013-04-14 02:23:00,
2013-04-13 19:28:00,76.8,46.9,29.69,West,265,2.0,8.0,35,0.00,,,0.00,5.0,WUHU216DAVISVP2,2013-04-14 02:28:00,
2013-04-13 19:33:00,76.1,49.2,29.70,West,280,3.0,8.0,39,0.00,,,0.00,0.0,WUHU216DAVISVP2,2013-04-14 02:33:00,
2013-04-13 19:38:00,75.3,49.2,29.70,West,268,3.0,8.0,40,0.00,,,0.00,0.0,WUHU216DAVISVP2,2013-04-14 02:38:00,
2013-04-13 19:43:00,74.7,48.7,29.70,WNW,290,4.0,8.0,40,0.00,,,0.00,0.0,WUHU216DAVISVP2,2013-04-14 02:43:00,
2013-04-13 19:48:00,74.2,48.9,29.70,West,280,5.0,8.0,41,0.00,,,0.00,0.0,WUHU216DAVISVP2,2013-04-14 02:48:00,
2013-04-13 19:53:00,73.8,48.5,29.70,West,263,6.0,7.0,41,0.00,,,0.00,0.0,WUHU216DAVISVP2,2013-04-14 02:53:00,
2013-04-13 19:58:00,73.4,48.3,29.70,West,281,5.0,7.0,41,0.00,,,0.00,0.0,WUHU216DAVISVP2,2013-04-14 02:58:00,
2013-04-13 20:03:00,73.0,48.5,29.71,WNW,299,5.0,7.0,42,0.00,,,0.00,0.0,WUHU216DAVISVP2,2013-04-14 03:03:00,
2013-04-13 20:08:00,72.8,48.3,29.71,WNW,294,4.0,8.0,42,0.00,,,0.00,0.0,WUHU216DAVISVP2,2013-04-14 03:08:00,
2013-04-13 20:13:00,72.6,48.1,29.71,WNW,302,5.0,8.0,42,0.00,,,0.00,0.0,WUHU216DAVISVP2,2013-04-14 03:13:00,
2013-04-13 20:18:00,72.3,47.8,29.71,NW,312,4.0,8.0,42,0.00,,,0.00,0.0,WUHU216DAVISVP2,2013-04-14 03:18:00,
2013-04-13 20:23:00,72.0,47.6,29.71,WNW,300,5.0,8.0,42,0.00,,,0.00,0.0,WUHU216DAVISVP2,2013-04-14 03:23:00,
2013-04-13 20:28:00,71.6,47.9,29.71,WNW,303,6.0,8.0,43,0.00,,,0.00,0.0,WUHU216DAVISVP2,2013-04-14 03:28:00,
2013-04-13 20:33:00,71.3,48.2,29.72,WNW,300,3.0,8.0,44,0.00,,,0.00,0.0,WUHU216DAVISVP2,2013-04-14 03:33:00,
2013-04-13 20:38:00,70.9,47.8,29.72,NW,313,3.0,8.0,44,0.00,,,0.00,0.0,WUHU216DAVISVP2,2013-04-14 03:38:00,
2013-04-13 20:43:00,70.6,48.2,29.72,WNW,300,4.0,8.0,45,0.00,,,0.00,0.0,WUHU216DAVISVP2,2013-04-14 03:43:00,
2013-04-13 20:48:00,70.3,47.9,29.72,WNW,299,3.0,8.0,45,0.00,,,0.00,0.0,WUHU216DAVISVP2,2013-04-14 03:48:00,
2013-04-13 20:53:00,70.2,47.9,29.73,NW,306,3.0,8.0,45,0.00,,,0.00,0.0,WUHU216DAVISVP2,2013-04-14 03:53:00,
2013-04-13 20:58:00,70.0,47.7,29.73,NW,312,5.0,7.0,45,0.00,,,0.00,0.0,WUHU216DAVISVP2,2013-04-14 03:58:00,
2013-04-13 21:00:00,70.0,47.7,29.73,NNW,327,5.0,7.0,45,0.00,,,0.00,0.0,WUHU216DAVISVP2,2013-04-14 04:00:00,
2013-04-13 21:05:00,69.9,46.9,29.73,NW,312,2.0,7.0,44,0.00,,,0.00,0.0,WUHU216DAVISVP2,2013-04-14 04:05:00,
2013-04-13 21:10:00,69.9,46.9,29.73,NW,313,4.0,7.0,44,0.00,,,0.00,0.0,WUHU216DAVISVP2,2013-04-14 04:10:00,
2013-04-13 21:15:00,69.9,46.9,29.73,WNW,302,5.0,7.0,44,0.00,,,0.00,0.0,WUHU216DAVISVP2,2013-04-14 04:15:00,
2013-04-13 21:20:00,69.7,46.8,29.73,WNW,301,4.0,7.0,44,0.00,,,0.00,0.0,WUHU216DAVISVP2,2013-04-14 04:20:00,
2013-04-13 21:25:00,69.5,47.2,29.73,WNW,296,3.0,7.0,45,0.00,,,0.00,0.0,WUHU216DAVISVP2,2013-04-14 04:25:00,
2013-04-13 21:30:00,69.2,46.9,29.73,WNW,296,2.0,6.0,45,0.00,,,0.00,0.0,WUHU216DAVISVP2,2013-04-14 04:30:00,
2013-04-13 21:35:00,69.0,47.3,29.74,WNW,296,2.0,5.0,46,0.00,,,0.00,0.0,WUHU216DAVISVP2,2013-04-14 04:35:00,
2013-04-13 21:40:00,68.7,47.1,29.74,WNW,296,1.0,5.0,46,0.00,,,0.00,0.0,WUHU216DAVISVP2,2013-04-14 04:40:00,
2013-04-13 21:45:00,68.5,47.5,29.74,WNW,296,0.0,4.0,47,0.00,,,0.00,0.0,WUHU216DAVISVP2,2013-04-14 04:45:00,
2013-04-13 21:50:00,68.2,47.2,29.74,WNW,296,1.0,4.0,47,0.00,,,0.00,0.0,WUHU216DAVISVP2,2013-04-14 04:50:00,
2013-04-13 21:55:00,67.9,47.5,29.74,WNW,296,1.0,3.0,48,0.00,,,0.00,0.0,WUHU216DAVISVP2,2013-04-14 04:55:00,
2013-04-13 22:00:00,67.7,47.8,29.74,WNW,296,3.0,4.0,49,0.00,,,0.00,0.0,WUHU216DAVISVP2,2013-04-14 05:00:00,
2013-04-13 22:05:00,67.5,48.2,29.74,WNW,296,2.0,5.0,50,0.00,,,0.00,0.0,WUHU216DAVISVP2,2013-04-14 05:05:00,
2013-04-13 22:10:00,67.1,47.8,29.74,WNW,296,3.0,5.0,50,0.00,,,0.00,0.0,WUHU216DAVISVP2,2013-04-14 05:10:00,
2013-04-13 22:15:00,66.7,48.5,29.75,WNW,296,2.0,5.0,52,0.00,,,0.00,0.0,WUHU216DAVISVP2,2013-04-14 05:15:00,
2013-04-13 22:20:00,66.3,48.7,29.75,WNW,296,2.0,5.0,53,0.00,,,0.00,0.0,WUHU216DAVISVP2,2013-04-14 05:20:00,
2013-04-13 22:25:00,66.1,49.1,29.75,WNW,300,3.0,6.0,54,0.00,,,0.00,0.0,WUHU216DAVISVP2,2013-04-14 05:25:00,
2013-04-13 22:30:00,65.9,49.4,29.75,WNW,285,4.0,6.0,55,0.00,,,0.00,0.0,WUHU216DAVISVP2,2013-04-14 05:30:00,
2013-04-13 22:35:00,65.6,49.5,29.75,West,270,1.0,6.0,56,0.00,,,0.00,0.0,WUHU216DAVISVP2,2013-04-14 05:35:00,
2013-04-13 22:40:00,65.1,50.0,29.75,West,275,1.0,6.0,58,0.00,,,0.00,0.0,WUHU216DAVISVP2,2013-04-14 05:40:00,
2013-04-13 22:45:00,64.6,50.1,29.75,West,275,2.0,6.0,59,0.00,,,0.00,0.0,WUHU216DAVISVP2,2013-04-14 05:45:00,
2013-04-13 22:50:00,64.0,50.9,29.76,WNW,296,3.0,6.0,62,0.00,,,0.00,0.0,WUHU216DAVISVP2,2013-04-14 05:50:00,
2013-04-13 22:55:00,63.7,50.9,29.76,WNW,292,5.0,6.0,63,0.00,,,0.00,0.0,WUHU216DAVISVP2,2013-04-14 05:55:00,
2013-04-13 23:00:00,63.5,51.1,29.76,WNW,292,8.0,8.0,64,0.00,,,0.00,0.0,WUHU216DAVISVP2,2013-04-14 06:00:00,
2013-04-13 23:05:00,63.5,51.3,29.76,NW,306,10.0,10.0,64,0.00,,,0.00,0.0,WUHU216DAVISVP2,2013-04-14 06:05:00,
2013-04-13 23:10:00,63.6,50.9,29.76,NW,304,5.0,10.0,63,0.00,,,0.00,0.0,WUHU216DAVISVP2,2013-04-14 06:10:00,
2013-04-13 23:15:00,63.4,50.7,29.76,WNW,294,5.0,10.0,63,0.00,,,0.00,0.0,WUHU216DAVISVP2,2013-04-14 06:15:00,
2013-04-13 23:20:00,63.2,51.0,29.76,WNW,294,5.0,10.0,64,0.00,,,0.00,0.0,WUHU216DAVISVP2,2013-04-14 06:20:00,
2013-04-13 23:25:00,63.1,50.5,29.76,WNW,288,9.0,10.0,63,0.00,,,0.00,0.0,WUHU216DAVISVP2,2013-04-14 06:25:00,
2013-04-13 23:30:00,63.1,50.5,29.76,WNW,295,2.0,10.0,63,0.00,,,0.00,0.0,WUHU216DAVISVP2,2013-04-14 06:30:00,
2013-04-13 23:35:00,63.0,50.4,29.75,WNW,298,5.0,10.0,63,0.00,,,0.00,0.0,WUHU216DAVISVP2,2013-04-14 06:35:00,
2013-04-13 23:40:00,62.9,50.3,29.75,NW,309,3.0,10.0,63,0.00,,,0.00,0.0,WUHU216DAVISVP2,2013-04-14 06:40:00,
2013-04-13 23:45:00,62.7,50.5,29.75,WNW,298,6.0,9.0,64,0.00,,,0.00,0.0,WUHU216DAVISVP2,2013-04-14 06:45:00,
2013-04-13 23:50:00,62.4,50.2,29.75,WNW,298,3.0,8.0,64,0.00,,,0.00,0.0,WUHU216DAVISVP2,2013-04-14 06:50:00,
2013-04-13 23:55:00,62.2,50.0,29.75,WNW,292,1.0,7.0,64,0.00,,,0.00,0.0,WUHU216DAVISVP2,2013-04-14 06:55:00,